Regional Weather Roundup
Issued by NWS Grand Forks, ND

Home | Current Version | Previous Version | Text Only | Print | Product List | Glossary Off
Versions: 1 2 3 4 5 6 7 8 9 10 11 12 13 14 15 16 17 18 19 20 21 22 23 24 25 26 27 28 29 30 31 32 33 34 35 36 37 38 39 40 41 42 43 44 45 46 47 48 49 50

000
ASUS43 KFGF 240131
RWRFGF
PRAIRIE TO PINES  WEATHER ROUNDUP
NATIONAL WEATHER SERVICE EASTERN NORTH DAKOTA/GRAND FORKS ND
800 PM CDT TUE MAY 23 2017

 **SATELLITE DATA USED TO AUGMENT SKY COVER AT AUTOMATED STATIONS**
 *****  WEATHER ACROSS EASTERN NORTH DAKOTA  *****

CITY           SKY/WX    TMP DP  RH WIND       PRES   REMARKS
GRAND FORKS    FAIR      62  42  47 E9        29.95F
GRAND FRKS AFB FAIR      60  42  51 SE6       29.96S
DEVILS LAKE    FAIR      62  38  40 E10       29.98F
FARGO          CLOUDY    57  44  62 NE12      29.94S
WAHPETON ARPT  FAIR      54  41  62 N8        29.93S
$$

 ***** WEATHER ACROSS CENTRAL AND WESTERN NORTH DAKOTA  *****

CITY           SKY/WX    TMP DP  RH WIND       PRES   REMARKS
BISMARCK       FAIR      63  37  38 E12G22    29.99F
MINOT          FAIR      65  34  31 E5        29.97F
JAMESTOWN      PTSUNNY   56  40  55 NE12      29.97S
MINOT AFB      FAIR      67  32  27 S5        29.96F
GARRISON         N/A     64  33  31 MISG      29.98F
WILLISTON      FAIR      69  33  26 SE9       29.95F
DICKINSON      FAIR      61  32  33 E6        29.99F
HETTINGER      FAIR      63  32  31 N7        30.02F
$$

 *****  OTHER AIRPORT OBSERVATIONS IN OUR AREA  *****

CITY           SKY/WX    TMP DP  RH WIND       PRES   REMARKS
WALHALLA       NOT AVBL
GRAFTON AIRPOR FAIR      61  41  48 SE6       29.97S
VALLEY CITY AR CLOUDY    55  46  71 NE8       29.98S
CANDO          NOT AVBL
CAVALIER APRT  FAIR      63  39  42 NE3       29.95S
GWINNER        PTCLDY    54  45  71 MISG      29.95S
SHEYENNE NWR     N/A     56  44  65 NE8       29.95S
ROLLA          FAIR      63  32  31 E5        29.98F
 ***** THE ABOVE OBSERVATIONS ARE NON NWS ARE NOT QUALITY
       CONTROLLED AND MAY MIS-REPORT RAIN FOR SNOW...
$$

  *****  WEATHER ACROSS NORTHERN MINNESOTA  *****

CITY           SKY/WX    TMP DP  RH WIND       PRES   REMARKS
FLAG ISLAND    FAIR      55  46  71 S6        29.92F
WARROAD        FAIR      59  45  58 SE3       29.95S
ROSEAU         FAIR      61  43  51 E5        29.94F
HALLOCK        MOCLDY    63  37  39 SE7       29.94S
THF RVR FALLS  FAIR      56  43  61 E6        29.96F
BAUDETTE       FAIR      54  41  61 E5        29.94S
WASKISH        FAIR      55  43  62 NE5       29.94F
CROOKSTON      FAIR      57  45  62 SE6       29.96S
STEPHEN NDAWN    N/A     63  39  42 E8          N/A
GREENBUSH NDAW   N/A     61  43  51 E6          N/A
$$
  *****  WEATHER ACROSS CENTRAL AND WEST MINNESOTA  *****

CITY           SKY/WX    TMP DP  RH WIND       PRES   REMARKS
FOSSTON        FAIR      54  46  76 NE8       29.95S
BEMIDJI        MOCLDY    51  43  73 NE9       29.93S
PARK RAPIDS    CLOUDY    54  41  61 N6        29.92R
ELBOW LAKE     MOCLDY    53  46  77 N12       29.91S
WADENA         CLOUDY    52  45  76 N9        29.91R
DETROIT LAKES  MOCLDY    54  43  66 NE9       29.93F
MOORHEAD       CLOUDY    55  45  67 N8        29.94F
FERGUS FALLS   FAIR      54  45  71 NE8       29.91S
MORRIS MN      MOCLDY    54  48  82 N12       29.89R
STAPLES        CLOUDY    52  45  76 N6        29.90S
$$
  *****  WEATHER ELSEWHERE ACROSS MINNESOTA  *****

CITY           SKY/WX    TMP DP  RH WIND       PRES   REMARKS
DULUTH         LGT RAIN  49  46  90 E12       29.89R
INTRNTL FALLS  FAIR      54  42  64 N5        29.93F
ELY            CLOUDY    52  43  71 CALM      29.90S
CLOQUET        CLOUDY    48  43  81 E6        29.89S
WHEATON        FAIR      54  45  71 N9G18     29.93S
BRAINERD       LGT RAIN  52  49  89 N10       29.89R FOG
HIBBING        CLOUDY    52  43  71 N8        29.90R
ALEXANDRIA     MOCLDY    53  46  77 N15       29.90R
SAINT CLOUD    MOCLDY    56  46  69 N7        29.84S
MINNEAPOLIS    CLOUDY    58  47  66 VRB7      29.80R
$$

  *****  WEATHER ACROSS SOUTH DAKOTA  *****

CITY           SKY/WX    TMP DP  RH WIND       PRES   REMARKS
SIOUX FALLS    MOCLDY    53  46  77 N18       29.87R
BROOKINGS      CLOUDY    52  46  80 N15       29.89R
WATERTOWN      CLOUDY    51  44  77 N14       29.91R
HURON          CLOUDY    52  45  77 N10       29.94S
SISSETON         N/A     55  46  71 NE17      29.92R
ABERDEEN       FAIR      54  40  59 N13       29.96S
MITCHELL       CLOUDY    53  45  74 N16       29.94R
PIERRE         PTSUNNY   57  38  48 N16       29.98F
MOBRIDGE       FAIR      61  36  39 N10       29.97S
RAPID CITY     FAIR      60  34  37 N15       30.03S
$$

  *****  SOME WEATHER IN NEARBY STATES *****

CITY           SKY/WX    TMP DP  RH WIND       PRES   REMARKS
GLASGOW MT     FAIR      71  28  20 SE16      29.86F
GREAT FALLS MT FAIR      78  45  30 SW9       29.78F
CHEYENNE WY    FAIR      54  30  40 N17       30.10F
SCOTTSBLUFF NE FAIR      61  36  39 N13       30.04S
OMAHA NE       MOCLDY    53  45  74 N7        29.83S
DES MOINES IA  MOCLDY    55  46  71 W6        29.76R
DAVENPORT IA   CLOUDY    57  51  80 NW10      29.71S
CHICAGO IL     LGT RAIN  58  55  90 SE5       29.70S
EAU CLAIRE WI  CLOUDY    57  44  62 NE9       29.77R
LA CROSSE WI   LGT RAIN  55  53  93 N6        29.73S
$$

  *****  SOME NATIONAL WEATHER *****

CITY           SKY/WX    TMP DP  RH WIND       PRES   REMARKS
LA GUARDIA NY  CLOUDY    66  49  54 S7        29.82F
RALEIGH NC     CLOUDY    67  65  93 E7        29.68S
ATLANTA GA     MOCLDY    71  65  81 S7        29.70S
NEW ORLEANS LA FAIR      77  68  73 W5        29.70R
OKLAHOMA CITY  FAIR      64  43  46 NW10      29.88S
ALBUQUERQUE NM FAIR      75  12   9 W24G32    30.03R
SALT LAKE CITY FAIR      81  37  20 N8        30.03F
LOS ANGELES CA PTSUNNY   64  58  80 W21       29.89F
BOISE ID       FAIR      85  37  18 N8        29.93F
SEATTLE WA     FAIR      69  54  58 SW9       29.97R
$$

*** WEATHER ACROSS MANITOBA...SASKATCHEWAN AND ONTARIO ***
                ***ONTARIO***

CITY           SKY/WX    TMP DP  RH WIND       PRES   REMARKS
GERALDTON      MOCLDY    52  41  66 NE6       29.92R
THUNDER BAY    MOCLDY    54  41  62 N5        29.90R
SIOUX LOOKOUT  PTCLDY    59  39  47 SW5       29.93S
TORONTO        MOCLDY    64  54  68 N9        29.76F
BIG TROUT LK     N/A     55  23  28 VRB2      29.97F
PICKLE LAKE    PTCLDY    57  21  24 NE8       29.94S
DRYDEN         CLEAR     59  37  44 SE6       29.93S
KENORA         PTCLDY    63  32  31 E7        29.93S
$$
                *** MANITOBA***

CITY           SKY/WX    TMP DP  RH WIND       PRES   REMARKS
BRANDON        PTSUNNY   66  34  30 S5        29.95F
DAUPHIN        SUNNY     68  36  30 SW7       29.89F
ISLAND LAKE    MOSUNNY   63  27  25 SE7       29.90F
PILOT MOUND      N/A     63  28  27 NE6         N/A
THE PAS        CLOUDY    64  41  42 SE12      29.77F
THOMPSON       CLOUDY    64  36  34 S9G20     29.78F
WINNIPEG       MOSUNNY   66  30  26 NE2       29.95S
LYNN LAKE      CLOUDY    63  41  45 S13G22    29.63F
CHURCHILL      CLOUDY    48  37  66 S16       29.76F
GILLAM         PTSUNNY   64  36  34 S5        29.82F
$$
                ***SASKATCHEWAN***

CITY           SKY/WX    TMP DP  RH WIND       PRES   REMARKS
ESTEVAN        CLOUDY    66  36  32 SE15      29.92F
KINDERSLEY     PTSUNNY   81  39  22 S23       29.61F
LLOYDMINSTER   MOSUNNY   79  39  24 S9        29.53F
PRINCE ALBERT  PTSUNNY   75  32  20 S16G22    29.67F
REGINA         PTSUNNY   72  30  21 S15G21    29.82F
YORKTON          N/A     70  32  24 S10       29.85F
N. BATTLEFORD  SUNNY     79  37  22 S16G23    29.61F
LA RONGE       MOSUNNY   75  37  25 S20G30    29.59F
SASKATOON      MOSUNNY   72  32  23 S15       29.70F
SWIFT CURRENT  MOSUNNY   72  28  20 S18G25    29.74F
$$
NOTE: THESE ARE AUTOMATED STATIONS WITH LIMITED QUALITY CONTROL
      "FAIR" INDICATES FEW OR NO CLOUDS BELOW 12,000 FEET WITH NO
      SIGNIFICANT WEATHER AND/OR OBSTRUCTIONS TO VISIBILITY.
      SKY/WX - SKY CONDITION AND SIGNIFICANT WEATHER.
      TMP - AIR TEMPERATURE.    DP   - DEWPOINT TEMPERATURE.
      RH  - RELATIVE HUMIDITY.  PRES - PRESSURE.
      HX  - HEAT INDEX.         WCI  - WIND CHILL INDEX.
$




USA.gov is the U.S. government's official web portal to all federal, state and local government web resources and services.